CW7986 Weather Reports


Display with metric or nautical units.
time (UTC)temp
F
wind
direction
speed
MPH
gust
MPH
rain 1hr
in
rain 24hr
in
rain mn
in
humidity
%
barometer
mb
20260510183523 88 254 2.0 7.0 0.00 0.00 0.00 72 1014.8
20260510183002 89 246 2.0 7.0 0.00 0.00 0.00 71 1014.8
20260510182502 88 263 3.0 11.0 0.00 0.00 0.00 72 1014.8
20260510182002 87 265 3.0 11.0 0.00 0.00 0.00 72 1014.9
20260510181502 88 270 5.0 11.0 0.00 0.00 0.00 73 1014.9
20260510181023 86 271 5.0 11.0 0.00 0.00 0.00 74 1015.0
20260510180503 87 269 4.0 12.0 0.00 0.00 0.00 72 1015.1
20260510180002 87 270 4.0 12.0 0.00 0.00 0.00 73 1015.2
20260510175503 88 270 4.0 10.0 0.00 0.00 0.00 72 1015.2
20260510175008 87 272 5.0 10.0 0.00 0.00 0.00 75 1015.3
20260510174502 87 269 5.0 10.0 0.00 0.00 0.00 74 1015.3
20260510174002 86 269 4.0 10.0 0.00 0.00 0.00 73 1015.3
20260510173502 88 271 4.0 10.0 0.00 0.00 0.00 72 1015.3
20260510173002 87 270 5.0 12.0 0.00 0.00 0.00 74 1015.4
20260510172523 86 270 5.0 12.0 0.00 0.00 0.00 73 1015.4
20260510172003 86 270 4.0 10.0 0.00 0.00 0.00 73 1015.4
20260510171503 88 267 4.0 11.0 0.00 0.00 0.00 71 1015.4
20260510171002 87 263 3.0 11.0 0.00 0.00 0.00 72 1015.4
20260510170502 88 262 4.0 10.0 0.00 0.00 0.00 73 1015.5
20260510170002 87 265 4.0 10.0 0.00 0.00 0.00 73 1015.5
20260510165502 88 265 3.0 11.0 0.00 0.00 0.00 72 1015.4
20260510165003 88 249 3.0 11.0 0.00 0.00 0.00 69 1015.4
20260510164502 89 226 2.0 9.0 0.00 0.00 0.00 71 1015.4
20260510164002 88 260 2.0 10.0 0.00 0.00 0.00 70 1015.5
20260510163523 88 265 3.0 10.0 0.00 0.00 0.00 73 1015.6
20260510163002 87 266 4.0 10.0 0.00 0.00 0.00 73 1015.7
20260510162523 86 268 5.0 12.0 0.00 0.00 0.00 72 1015.8
20260510162003 87 268 4.0 12.0 0.00 0.00 0.00 71 1015.7
20260510161523 87 269 3.0 9.0 0.00 0.00 0.00 72 1015.8
20260510161002 88 264 3.0 9.0 0.00 0.00 0.00 72 1015.8
20260510160502 88 265 3.0 10.0 0.00 0.00 0.00 71 1015.8
20260510160002 87 263 4.0 10.0 0.00 0.00 0.00 73 1015.8
20260510155503 88 258 3.0 7.0 0.00 0.00 0.00 71 1015.8
20260510155002 90 266 2.0 7.0 0.00 0.00 0.00 69 1015.8
20260510154502 88 266 3.0 7.0 0.00 0.00 0.00 70 1015.7
20260510154023 88 261 2.0 7.0 0.00 0.00 0.00 70 1015.7
20260510153502 88 258 2.0 10.0 0.00 0.00 0.00 69 1015.6
20260510153003 88 259 3.0 10.0 0.00 0.00 0.00 70 1015.6
20260510152504 88 255 2.0 7.0 0.00 0.00 0.00 69 1015.7
20260510152002 89 233 2.0 6.0 0.00 0.00 0.00 70 1015.6
20260510151502 89 188 3.0 6.0 0.00 0.00 0.00 69 1015.6
20260510151008 88 192 3.0 7.0 0.00 0.00 0.00 69 1015.5
20260510150523 89 206 2.0 7.0 0.00 0.00 0.00 70 1015.5
20260510150024 89 181 2.0 7.0 0.00 0.00 0.00 71 1015.4
20260510145503 88 185 3.0 9.0 0.00 0.00 0.00 71 1015.3
20260510145023 87 190 3.0 10.0 0.00 0.00 0.00 71 1015.3
20260510144502 86 189 2.0 10.0 0.00 0.00 0.00 72 1015.3
20260510144002 86 191 2.0 7.0 0.00 0.00 0.00 74 1015.3
20260510143502 86 202 2.0 7.0 0.00 0.00 0.00 74 1015.3
20260510143002 85 191 2.0 6.0 0.00 0.00 0.00 76 1015.3
20260510142502 85 181 2.0 8.0 0.00 0.00 0.00 76 1015.3
20260510142002 86 181 2.0 8.0 0.00 0.00 0.00 76 1015.3
20260510141523 84 191 3.0 7.0 0.00 0.00 0.00 77 1015.3
20260510141023 85 260 2.0 7.0 0.00 0.00 0.00 79 1015.3
20260510140502 84 271 2.0 5.0 0.00 0.00 0.00 78 1015.2
20260510140002 85 269 1.0 4.0 0.00 0.00 0.00 79 1015.1
20260510135502 84 272 1.0 4.0 0.00 0.00 0.00 79 1015.1
20260510135002 84 270 1.0 4.0 0.00 0.00 0.00 80 1015.0
20260510134502 83 215 1.0 4.0 0.00 0.00 0.00 82 1015.1
20260510134023 82 182 2.0 6.0 0.00 0.00 0.00 82 1015.1
20260510133502 82 172 2.0 6.0 0.00 0.00 0.00 83 1015.0
20260510133002 82 174 2.0 4.0 0.00 0.00 0.00 84 1015.0
20260510132523 81 169 2.0 4.0 0.00 0.00 0.00 85 1015.0
20260510132002 81 152 1.0 5.0 0.00 0.00 0.00 86 1015.2
20260510131502 80 135 1.0 5.0 0.00 0.00 0.00 87 1015.1
20260510131002 79 111 0.0 2.0 0.00 0.00 0.00 88 1015.0
20260510130502 79 80 0.0 2.0 0.00 0.00 0.00 89 1015.2
20260510130002 78 80 0.0 2.0 0.00 0.00 0.00 89 1015.2
20260510125502 78 81 0.0 2.0 0.00 0.00 0.00 89 1015.1
20260510125024 78 82 0.0 2.0 0.00 0.00 0.00 89 1015.0
20260510124502 78 0 0.0 0.0 0.00 0.00 0.00 89 1014.9
20260510124003 78 130 0.0 1.0 0.00 0.00 0.00 89 1014.8
20260510123502 78 130 0.0 1.0 0.00 0.00 0.00 89 1014.8
20260510123024 77 0 0.0 0.0 0.00 0.00 0.00 89 1014.8
20260510122502 77 130 0.0 1.0 0.00 0.00 0.00 89 1014.7
20260510122002 77 130 0.0 1.0 0.00 0.00 0.00 89 1014.7
20260510121503 77 130 0.0 1.0 0.00 0.00 0.00 89 1014.5
20260510121002 77 130 0.0 2.0 0.00 0.00 0.00 89 1014.4
20260510120523 76 131 1.0 3.0 0.00 0.00 0.00 89 1014.3
20260510120024 76 131 0.0 3.0 0.00 0.00 0.00 89 1014.2
20260510115502 76 128 0.0 2.0 0.00 0.00 0.00 89 1014.2
20260510115002 76 93 0.0 1.0 0.00 0.00 0.00 89 1014.0
20260510114502 76 144 0.0 4.0 0.00 0.00 0.00 89 1013.9
20260510114002 76 140 1.0 4.0 0.00 0.00 0.00 89 1013.8
20260510113502 76 143 1.0 3.0 0.00 0.00 0.00 89 1013.8
20260510113002 76 151 1.0 3.0 0.00 0.00 0.00 89 1013.7
20260510112502 76 162 1.0 4.0 0.00 0.00 0.00 89 1013.6
20260510112002 76 159 3.0 5.0 0.00 0.00 0.00 89 1013.3
20260510111502 76 151 3.0 5.0 0.00 0.00 0.00 89 1013.2
20260510111002 76 146 3.0 5.0 0.00 0.00 0.00 89 1013.2
20260510110502 76 149 2.0 5.0 0.00 0.00 0.00 89 1013.1
20260510110003 76 157 2.0 5.0 0.00 0.00 0.00 89 1012.9
20260510105502 76 158 2.0 5.0 0.00 0.00 0.00 89 1012.8
20260510105003 76 152 2.0 5.0 0.00 0.00 0.00 89 1012.7
20260510104502 76 152 2.0 5.0 0.00 0.00 0.00 89 1012.7
20260510104002 76 153 2.0 5.0 0.00 0.00 0.00 89 1012.6
20260510103502 76 145 3.0 7.0 0.00 0.00 0.00 89 1012.4
20260510103002 76 137 3.0 7.0 0.00 0.00 0.00 89 1012.2
20260510102524 76 133 2.0 6.0 0.00 0.00 0.00 89 1012.2
20260510102003 76 132 2.0 6.0 0.00 0.00 0.00 89 1012.3
20260510101503 76 127 2.0 5.0 0.00 0.00 0.00 89 1012.3
20260510101023 76 126 2.0 5.0 0.00 0.00 0.00 89 1012.2
20260510100502 76 128 2.0 5.0 0.00 0.00 0.00 89 1012.4
20260510100023 76 125 1.0 4.0 0.00 0.00 0.00 89 1012.4
20260510095502 76 120 1.0 3.0 0.00 0.00 0.00 89 1012.4
20260510095002 77 122 1.0 3.0 0.00 0.00 0.00 89 1012.6
20260510094525 76 120 0.0 1.0 0.00 0.00 0.00 89 1012.6
20260510094004 77 123 0.0 2.0 0.00 0.00 0.00 89 1012.6
20260510093502 77 131 1.0 3.0 0.00 0.00 0.00 89 1012.6
20260510093003 77 134 1.0 3.0 0.00 0.00 0.00 89 1012.4
20260510092523 77 0 0.0 0.0 0.00 0.00 0.00 89 1012.5
20260510092002 77 0 0.0 0.0 0.00 0.00 0.00 89 1012.5
20260510091502 77 0 0.0 0.0 0.00 0.00 0.00 88 1012.6
20260510091002 77 115 0.0 1.0 0.00 0.00 0.00 88 1012.6
20260510090524 77 115 0.0 1.0 0.00 0.00 0.00 88 1012.6
20260510090023 77 115 0.0 1.0 0.00 0.00 0.00 88 1012.5
20260510085503 77 115 0.0 2.0 0.00 0.00 0.00 88 1012.4
20260510085002 77 115 1.0 3.0 0.00 0.00 0.00 88 1012.3
20260510084523 77 115 1.0 3.0 0.00 0.00 0.00 88 1012.3
20260510084002 77 115 1.0 2.0 0.00 0.00 0.00 88 1012.2
20260510083502 77 116 1.0 3.0 0.00 0.00 0.00 88 1012.2
20260510083002 77 122 1.0 4.0 0.00 0.00 0.00 88 1012.2
20260510082502 77 132 1.0 4.0 0.00 0.00 0.00 88 1012.2
20260510082002 77 137 1.0 3.0 0.00 0.00 0.00 88 1012.2
20260510081524 77 134 1.0 3.0 0.00 0.00 0.00 88 1012.3
20260510081002 77 134 1.0 4.0 0.00 0.00 0.00 88 1012.3
20260510080502 77 134 0.0 4.0 0.00 0.00 0.00 88 1012.3
20260510080003 77 0 0.0 0.0 0.00 0.00 0.00 88 1012.4
20260510075502 77 0 0.0 0.0 0.00 0.00 0.00 88 1012.3
20260510075002 77 0 0.0 0.0 0.00 0.00 0.00 88 1012.5
20260510074502 77 0 0.0 0.0 0.00 0.00 0.00 88 1012.6
20260510074002 77 0 0.0 0.0 0.00 0.00 0.00 88 1012.6
20260510073524 77 0 0.0 0.0 0.00 0.00 0.00 88 1012.6
20260510073002 77 0 0.0 0.0 0.00 0.00 0.00 88 1012.6
20260510072502 77 0 0.0 0.0 0.00 0.00 0.00 88 1012.7
20260510072002 77 0 0.0 0.0 0.00 0.00 0.00 88 1012.7
20260510071523 77 0 0.0 0.0 0.00 0.00 0.00 88 1012.7
20260510071002 77 0 0.0 0.0 0.00 0.00 0.00 88 1012.7
20260510070523 77 92 0.0 1.0 0.00 0.00 0.00 88 1012.7
20260510070002 77 92 0.0 1.0 0.00 0.00 0.00 88 1012.7
20260510065503 77 92 0.0 2.0 0.00 0.00 0.00 88 1012.6
20260510065003 78 92 0.0 2.0 0.00 0.00 0.00 88 1012.7
20260510064502 78 92 0.0 2.0 0.00 0.00 0.00 88 1012.7
20260510064024 78 92 0.0 2.0 0.00 0.00 0.00 88 1012.7
20260510063524 78 92 0.0 3.0 0.00 0.00 0.00 88 1012.7
20260510063002 78 92 0.0 3.0 0.00 0.00 0.00 88 1012.8
20260510062502 78 92 0.0 3.0 0.00 0.00 0.00 88 1012.9
20260510062002 78 92 0.0 2.0 0.00 0.00 0.00 88 1013.0
20260510061502 78 92 0.0 3.0 0.00 0.00 0.00 87 1013.0
20260510061003 78 92 0.0 3.0 0.00 0.00 0.00 87 1013.0
20260510060502 78 0 0.0 0.0 0.00 0.00 0.00 87 1013.1
20260510060002 78 0 0.0 0.0 0.00 0.00 0.00 87 1013.2
20260510055523 78 0 0.0 0.0 0.00 0.00 0.00 87 1013.2
20260510055023 78 0 0.0 0.0 0.00 0.00 0.00 87 1013.2
20260510054503 78 0 0.0 0.0 0.00 0.00 0.00 87 1013.2
20260510054002 78 0 0.0 0.0 0.00 0.00 0.00 87 1013.2
20260510053502 78 0 0.0 0.0 0.00 0.00 0.00 87 1013.2
20260510053003 78 0 0.0 0.0 0.00 0.00 0.00 87 1013.2
20260510052523 78 0 0.0 0.0 0.00 0.00 0.00 87 1013.3
20260510052002 78 0 0.0 0.0 0.00 0.00 0.00 87 1013.3
20260510051502 78 263 0.0 1.0 0.00 0.00 0.00 87 1013.3
20260510051023 78 263 0.0 1.0 0.00 0.00 0.00 87 1013.5
20260510050502 78 263 0.0 1.0 0.00 0.00 0.00 87 1013.5
20260510050002 79 0 0.0 0.0 0.00 0.00 0.00 87 1013.5
20260510045502 79 0 0.0 0.0 0.00 0.00 0.00 87 1013.5
20260510045003 79 263 0.0 1.0 0.00 0.00 0.00 87 1013.5
20260510044503 79 263 0.0 1.0 0.00 0.00 0.00 87 1013.5
20260510044002 79 263 0.0 1.0 0.00 0.00 0.00 87 1013.5
20260510043503 79 263 0.0 1.0 0.00 0.00 0.00 87 1013.6
20260510043002 79 263 0.0 2.0 0.00 0.00 0.00 87 1013.6
20260510042502 79 263 0.0 2.0 0.00 0.00 0.00 87 1013.7
20260510042002 79 263 0.0 2.0 0.00 0.00 0.00 87 1013.7
20260510041502 79 263 0.0 3.0 0.00 0.00 0.00 87 1013.6
20260510041023 79 270 1.0 3.0 0.00 0.00 0.00 87 1013.6
20260510040502 79 281 1.0 3.0 0.00 0.00 0.00 87 1013.7
20260510040024 79 286 1.0 3.0 0.00 0.00 0.00 87 1013.7
20260510035502 79 286 0.0 2.0 0.00 0.00 0.00 86 1013.6
20260510035023 79 286 0.0 2.0 0.00 0.00 0.00 86 1013.6
20260510034502 79 286 0.0 2.0 0.00 0.00 0.00 86 1013.6
20260510034002 79 286 0.0 4.0 0.00 0.00 0.00 86 1013.5
20260510033502 79 286 0.0 4.0 0.00 0.00 0.00 86 1013.5
20260510033024 79 286 0.0 2.0 0.00 0.00 0.00 86 1013.5
20260510032502 79 286 0.0 2.0 0.00 0.00 0.00 86 1013.4
20260510032002 79 286 0.0 1.0 0.00 0.00 0.00 86 1013.5
20260510031503 79 286 1.0 2.0 0.00 0.00 0.00 86 1013.4
20260510031007 79 286 1.0 2.0 0.00 0.00 0.00 86 1013.4
20260510030502 79 285 0.0 2.0 0.00 0.00 0.00 85 1013.3
20260510030002 79 290 0.0 2.0 0.00 0.00 0.00 85 1013.4
20260510025502 79 297 1.0 2.0 0.00 0.00 0.00 85 1013.4
20260510025002 79 285 1.0 2.0 0.00 0.00 0.00 85 1013.4
20260510024523 79 283 1.0 3.0 0.00 0.00 0.00 85 1013.3
20260510024003 79 284 1.0 3.0 0.00 0.00 0.00 85 1013.3
20260510023510 80 273 1.0 4.0 0.00 0.00 0.00 85 1013.3
20260510023023 80 268 1.0 4.0 0.00 0.00 0.00 85 1013.2
20260510022502 80 266 0.0 3.0 0.00 0.00 0.00 84 1013.1
20260510022002 80 266 0.0 1.0 0.00 0.00 0.00 84 1013.0
20260510021502 80 272 1.0 4.0 0.00 0.00 0.00 84 1013.0
20260510021002 80 274 1.0 4.0 0.00 0.00 0.00 84 1012.9
20260510020503 80 280 0.0 4.0 0.00 0.00 0.00 84 1012.9
20260510020003 80 283 0.0 3.0 0.00 0.00 0.00 83 1012.8
20260510015523 80 283 1.0 3.0 0.00 0.00 0.00 83 1012.8
20260510015002 80 283 1.0 3.0 0.00 0.00 0.00 83 1012.7
20260510014504 80 282 1.0 4.0 0.00 0.00 0.00 83 1012.7
20260510014002 80 282 1.0 4.0 0.00 0.00 0.00 83 1012.7
20260510013523 80 284 1.0 4.0 0.00 0.00 0.00 83 1012.7
20260510013002 80 284 1.0 4.0 0.00 0.00 0.00 83 1012.7
20260510012502 80 284 1.0 3.0 0.00 0.00 0.00 82 1012.6
20260510012003 80 284 1.0 3.0 0.00 0.00 0.00 82 1012.5
20260510011502 80 284 0.0 2.0 0.00 0.00 0.00 82 1012.3
20260510011002 80 278 1.0 4.0 0.00 0.00 0.00 82 1012.3
20260510010502 80 275 1.0 4.0 0.00 0.00 0.00 81 1012.2
20260510010003 80 268 0.0 4.0 0.00 0.00 0.00 81 1012.2
20260510005502 80 251 0.0 2.0 0.00 0.00 0.00 81 1012.0
20260510005003 80 268 1.0 6.0 0.00 0.00 0.00 81 1011.9
20260510004502 80 276 1.0 6.0 0.00 0.00 0.00 80 1011.9
20260510004003 80 279 1.0 3.0 0.00 0.00 0.00 80 1011.8
20260510003502 81 283 1.0 4.0 0.00 0.00 0.00 79 1011.7
20260510003023 81 281 2.0 5.0 0.00 0.00 0.00 79 1011.7
20260510002523 81 281 2.0 5.0 0.00 0.00 0.00 79 1011.7
20260510002003 81 278 1.0 4.0 0.00 0.00 0.00 78 1011.6
20260510001503 81 273 1.0 5.0 0.00 0.00 0.00 78 1011.5
20260510001002 81 273 1.0 5.0 0.00 0.00 0.00 78 1011.5
20260510000502 81 260 1.0 5.0 0.00 0.00 0.00 78 1011.5
20260510000002 82 247 1.0 3.0 0.00 0.00 0.00 77 1011.5
20260509235502 82 255 1.0 5.0 0.00 0.00 0.00 77 1011.6
20260509235002 82 267 2.0 5.0 0.00 0.00 0.00 77 1011.6
20260509234502 82 275 2.0 5.0 0.00 0.00 0.00 77 1011.6
20260509234023 82 270 2.0 5.0 0.00 0.00 0.00 76 1011.5
20260509233502 82 258 2.0 5.0 0.00 0.00 0.00 75 1011.3
20260509233002 83 229 1.0 4.0 0.00 0.00 0.00 74 1011.3
20260509232502 83 217 1.0 4.0 0.00 0.00 0.00 74 1011.2
20260509232025 83 225 1.0 4.0 0.00 0.00 0.00 74 1011.2
20260509231502 83 265 1.0 4.0 0.00 0.00 0.00 74 1011.1
20260509231023 83 270 1.0 4.0 0.00 0.00 0.00 73 1011.1
20260509230502 84 266 2.0 9.0 0.00 0.00 0.00 73 1011.1
20260509230002 84 257 3.0 9.0 0.00 0.00 0.00 72 1011.1
20260509225523 84 252 2.0 9.0 0.00 0.00 0.00 72 1011.1
20260509225002 85 216 2.0 8.0 0.00 0.00 0.00 72 1011.1
20260509224502 85 187 2.0 8.0 0.00 0.00 0.00 73 1011.1
20260509224002 85 237 2.0 9.0 0.00 0.00 0.00 72 1011.1
20260509223502 85 269 3.0 9.0 0.00 0.00 0.00 72 1011.1
20260509223002 85 270 2.0 8.0 0.00 0.00 0.00 72 1011.1
20260509222503 86 252 2.0 6.0 0.00 0.00 0.00 71 1011.0
20260509222002 86 217 2.0 8.0 0.00 0.00 0.00 71 1010.9
20260509221503 86 225 3.0 8.0 0.00 0.00 0.00 71 1010.8
20260509221002 87 249 2.0 7.0 0.00 0.00 0.00 70 1010.8
20260509220502 87 236 2.0 6.0 0.00 0.00 0.00 70 1010.7
20260509220002 87 221 2.0 6.0 0.00 0.00 0.00 70 1010.7
20260509215502 87 217 2.0 7.0 0.00 0.00 0.00 71 1010.7
20260509215023 87 235 2.0 7.0 0.00 0.00 0.00 71 1010.7
20260509214502 86 260 3.0 7.0 0.00 0.00 0.00 71 1010.7
20260509214002 87 252 3.0 7.0 0.00 0.00 0.00 70 1010.7
20260509213502 87 214 2.0 6.0 0.00 0.00 0.00 70 1010.7
20260509213002 87 235 3.0 9.0 0.00 0.00 0.00 71 1010.6
20260509212502 86 239 3.0 9.0 0.00 0.00 0.00 70 1010.6
20260509212002 87 244 3.0 9.0 0.00 0.00 0.00 71 1010.6
20260509211502 87 229 2.0 9.0 0.00 0.00 0.00 70 1010.6
20260509211003 87 217 2.0 6.0 0.00 0.00 0.00 69 1010.6
20260509210502 87 237 2.0 7.0 0.00 0.00 0.00 69 1010.7
20260509210003 87 230 2.0 7.0 0.00 0.00 0.00 69 1010.7
20260509205523 88 217 2.0 11.0 0.00 0.00 0.00 68 1010.8
20260509205023 88 186 3.0 11.0 0.00 0.00 0.00 70 1010.8
20260509204503 87 205 3.0 9.0 0.00 0.00 0.00 69 1010.9
20260509204024 87 235 3.0 9.0 0.00 0.00 0.00 69 1010.9
20260509203502 87 249 3.0 9.0 0.00 0.00 0.00 70 1011.0
20260509203023 88 261 4.0 10.0 0.00 0.00 0.00 68 1011.0
20260509202502 87 263 4.0 10.0 0.00 0.00 0.00 69 1011.0
20260509202002 87 260 3.0 9.0 0.00 0.00 0.00 69 1011.1
20260509201502 88 252 2.0 5.0 0.00 0.00 0.00 68 1011.1
20260509201002 88 244 3.0 11.0 0.00 0.00 0.00 69 1011.1
20260509200502 88 247 3.0 11.0 0.00 0.00 0.00 69 1011.2
20260509200023 88 232 2.0 11.0 0.00 0.00 0.00 68 1011.2
20260509195502 88 197 3.0 7.0 0.00 0.00 0.00 69 1011.2
20260509195002 88 198 2.0 9.0 0.00 0.00 0.00 68 1011.3
20260509194502 89 237 3.0 9.0 0.00 0.00 0.00 67 1011.3
20260509194002 89 248 3.0 9.0 0.00 0.00 0.00 67 1011.4
20260509193523 89 231 2.0 11.0 0.00 0.00 0.00 65 1011.4
20260509193002 90 230 2.0 11.0 0.00 0.00 0.00 66 1011.6
20260509192523 90 244 2.0 9.0 0.00 0.00 0.00 66 1011.6
20260509192002 88 213 3.0 9.0 0.00 0.00 0.00 67 1011.6
20260509191503 89 194 3.0 7.0 0.00 0.00 0.00 66 1011.7
20260509191003 89 196 3.0 10.0 0.00 0.00 0.00 66 1011.8
20260509190502 90 225 3.0 10.0 0.00 0.00 0.00 66 1011.9
20260509190002 88 220 3.0 12.0 0.00 0.00 0.00 67 1012.0
20260509185502 90 230 3.0 12.0 0.00 0.00 0.00 65 1012.0
20260509185023 89 252 3.0 8.0 0.00 0.00 0.00 67 1012.1
20260509184502 89 253 4.0 10.0 0.00 0.00 0.00 66 1012.1
20260509184002 89 220 3.0 9.0 0.00 0.00 0.00 66 1012.2